User: anonymous   Login
Location: Arrakis Observatory
(44.1122°N, 95.7153°W)
Time: 08:53:33
(UTC-05:00)
Language:

Coronas F rocket - Orbit

View from above orbital plane
View from above orbital plane
View from above satellite
View from above satellite

Ground track
Ground track

The orbit data is extracted from the following two-line orbital elements,

1 26874U 01032B   16269.22289142  .00038419  00000-0  15261-3 0  9990
2 26874  82.4600 171.9039 0006623 152.0066 208.1562 15.86472135851477
Epoch (UTC): 25 September 2016 05:20:57
Eccentricity: 0.0006623
inclination: 82.4600°
perigee height: 308 km
apogee height: 316 km
right ascension of ascending node: 171.9039°
argument of perigee: 152.0066°
revolutions per day: 15.86472135
mean anomaly at epoch: 208.1562°
orbit number at epoch: 85147

The dashed part of the orbit path shows where the satellite is in the earth's shadow,  

DLR